| time (UTC) | temp F | wind direction | speed MPH | gust MPH | rain 1hr in | rain 24hr in | rain mn in | humidity % | barometer mb |
| 20260507065424 | 63 | 342 | 1.0 | 2.0 | 0.00 | 0.00 | 0.00 | 61 | 1014.8 |
| 20260507064421 | 63 | 270 | 0.0 | 2.0 | 0.00 | 0.00 | 0.00 | 63 | 1014.7 |
| 20260507063419 | 62 | 0.0 | 2.0 | 0.00 | 0.00 | 0.00 | 65 | 1014.7 | |
| 20260507062516 | 62 | 0.0 | 0.0 | 0.00 | 0.00 | 0.00 | 67 | 1014.6 | |
| 20260507061511 | 60 | 270 | 0.0 | 2.0 | 0.00 | 0.00 | 0.00 | 73 | 1014.6 |
| 20260507060528 | 58 | 270 | 2.0 | 2.0 | 0.00 | 0.00 | 0.00 | 76 | 1014.4 |
| 20260507055505 | 57 | 270 | 1.0 | 2.0 | 0.00 | 0.00 | 0.00 | 77 | 1014.4 |
| 20260507054503 | 57 | 270 | 1.0 | 2.0 | 0.00 | 0.00 | 0.00 | 78 | 1014.5 |
| 20260507053459 | 56 | 256 | 1.0 | 2.0 | 0.00 | 0.00 | 0.00 | 79 | 1014.4 |
| 20260507052455 | 56 | 248 | 1.0 | 2.0 | 0.00 | 0.00 | 0.00 | 80 | 1014.3 |
| 20260507051453 | 56 | 248 | 2.0 | 2.0 | 0.00 | 0.00 | 0.00 | 80 | 1014.4 |
| 20260507050509 | 55 | 248 | 2.0 | 4.0 | 0.00 | 0.00 | 0.00 | 80 | 1014.3 |
| 20260507045445 | 56 | 232 | 2.0 | 4.0 | 0.00 | 0.00 | 0.00 | 79 | 1013.9 |
| 20260507044442 | 56 | 225 | 1.0 | 2.0 | 0.00 | 0.00 | 0.00 | 78 | 1013.8 |
| 20260507043439 | 56 | 248 | 2.0 | 2.0 | 0.00 | 0.00 | 0.00 | 77 | 1013.8 |
| 20260507042436 | 56 | 258 | 1.0 | 2.0 | 0.00 | 0.00 | 0.00 | 77 | 1013.7 |
| 20260507041432 | 57 | 270 | 0.0 | 2.0 | 0.00 | 0.00 | 0.00 | 76 | 1013.7 |
| 20260507040430 | 57 | 300 | 1.0 | 2.0 | 0.00 | 0.00 | 0.00 | 74 | 1013.8 |
| 20260507035426 | 58 | 263 | 2.0 | 2.0 | 0.00 | 0.00 | 0.00 | 74 | 1013.7 |
| 20260507034423 | 58 | 293 | 2.0 | 4.0 | 0.00 | 0.00 | 0.00 | 74 | 1013.7 |
| 20260507033420 | 58 | 270 | 1.0 | 2.0 | 0.00 | 0.00 | 0.00 | 74 | 1013.8 |
| 20260507032437 | 58 | 0.0 | 0.0 | 0.00 | 0.00 | 0.00 | 73 | 1014.0 | |
| 20260507031536 | 58 | 293 | 2.0 | 2.0 | 0.00 | 0.00 | 0.00 | 73 | 1014.0 |
| 20260507030511 | 58 | 279 | 3.0 | 6.0 | 0.00 | 0.00 | 0.00 | 74 | 1014.1 |
| 20260507025507 | 58 | 270 | 1.0 | 4.0 | 0.00 | 0.00 | 0.00 | 75 | 1014.2 |
| 20260507024503 | 58 | 293 | 1.0 | 4.0 | 0.00 | 0.00 | 0.00 | 76 | 1014.3 |
| 20260507023500 | 58 | 270 | 3.0 | 4.0 | 0.00 | 0.00 | 0.00 | 76 | 1014.2 |
| 20260507022458 | 58 | 265 | 3.0 | 4.0 | 0.00 | 0.00 | 0.00 | 76 | 1014.2 |
| 20260507021514 | 58 | 270 | 4.0 | 6.0 | 0.00 | 0.00 | 0.00 | 75 | 1014.2 |
| 20260507020450 | 58 | 270 | 3.0 | 4.0 | 0.00 | 0.00 | 0.00 | 75 | 1014.2 |
| 20260507015448 | 58 | 270 | 2.0 | 2.0 | 0.00 | 0.00 | 0.00 | 76 | 1014.2 |
| 20260507014444 | 58 | 260 | 1.0 | 2.0 | 0.00 | 0.00 | 0.00 | 77 | 1014.3 |
| 20260507013441 | 58 | 260 | 1.0 | 2.0 | 0.00 | 0.00 | 0.00 | 76 | 1014.4 |
| 20260507012438 | 59 | 287 | 3.0 | 4.0 | 0.00 | 0.00 | 0.00 | 75 | 1014.4 |
| 20260507011434 | 59 | 248 | 2.0 | 2.0 | 0.00 | 0.00 | 0.00 | 75 | 1014.4 |
| 20260507010431 | 59 | 240 | 2.0 | 2.0 | 0.00 | 0.00 | 0.00 | 75 | 1014.4 |
| 20260507005428 | 59 | 0.0 | 0.0 | 0.00 | 0.00 | 0.00 | 75 | 1014.4 | |
| 20260507004425 | 59 | 270 | 2.0 | 2.0 | 0.00 | 0.00 | 0.00 | 75 | 1014.5 |
| 20260507003421 | 60 | 264 | 3.0 | 4.0 | 0.00 | 0.00 | 0.00 | 73 | 1014.7 |
| 20260507002418 | 61 | 315 | 2.0 | 4.0 | 0.00 | 0.00 | 0.00 | 72 | 1014.6 |
| 20260507001415 | 60 | 338 | 2.0 | 2.0 | 0.00 | 0.00 | 0.00 | 75 | 1014.7 |
| 20260507000511 | 60 | 0.0 | 0.0 | 0.00 | 0.00 | 0.00 | 75 | 1014.9 | |
| 20260506235508 | 61 | 0.0 | 0.0 | 0.00 | 0.00 | 0.00 | 75 | 1014.9 | |
| 20260506234505 | 61 | 255 | 1.0 | 2.0 | 0.00 | 0.00 | 0.00 | 75 | 1015.1 |
| 20260506233502 | 61 | 270 | 2.0 | 2.0 | 0.00 | 0.00 | 0.00 | 74 | 1015.0 |
| 20260506232459 | 62 | 270 | 1.0 | 2.0 | 0.00 | 0.00 | 0.00 | 73 | 1015.1 |
| 20260506231455 | 62 | 293 | 2.0 | 2.0 | 0.00 | 0.00 | 0.00 | 72 | 1015.2 |
| 20260506230454 | 62 | 338 | 1.0 | 2.0 | 0.00 | 0.00 | 0.00 | 72 | 1015.2 |
| 20260506225449 | 62 | 315 | 2.0 | 2.0 | 0.00 | 0.00 | 0.00 | 72 | 1015.2 |
| 20260506224446 | 62 | 330 | 1.0 | 2.0 | 0.00 | 0.00 | 0.00 | 72 | 1015.2 |
| 20260506223443 | 62 | 334 | 1.0 | 2.0 | 0.00 | 0.00 | 0.00 | 71 | 1015.2 |
| 20260506222441 | 62 | 330 | 2.0 | 4.0 | 0.00 | 0.00 | 0.00 | 71 | 1015.2 |
| 20260506221437 | 62 | 330 | 1.0 | 2.0 | 0.00 | 0.00 | 0.00 | 71 | 1015.1 |
| 20260506220434 | 62 | 315 | 0.0 | 2.0 | 0.00 | 0.00 | 0.00 | 71 | 1015.2 |
| 20260506215430 | 62 | 0.0 | 2.0 | 0.00 | 0.00 | 0.00 | 70 | 1015.3 | |
| 20260506214427 | 63 | 323 | 1.0 | 4.0 | 0.00 | 0.00 | 0.00 | 70 | 1015.2 |
| 20260506213423 | 63 | 0.0 | 0.0 | 0.00 | 0.00 | 0.00 | 70 | 1015.1 | |
| 20260506212420 | 63 | 15 | 1.0 | 2.0 | 0.00 | 0.00 | 0.00 | 69 | 1015.0 |
| 20260506211417 | 64 | 0.0 | 0.0 | 0.00 | 0.00 | 0.00 | 67 | 1015.0 | |
| 20260506210515 | 64 | 45 | 1.0 | 2.0 | 0.00 | 0.00 | 0.00 | 67 | 1014.8 |
| 20260506205512 | 64 | 68 | 2.0 | 4.0 | 0.00 | 0.00 | 0.00 | 68 | 1014.7 |
| 20260506204507 | 64 | 90 | 2.0 | 6.0 | 0.00 | 0.00 | 0.00 | 68 | 1014.7 |
| 20260506203526 | 64 | 60 | 4.0 | 7.0 | 0.00 | 0.00 | 0.00 | 68 | 1014.6 |
| 20260506202501 | 64 | 90 | 2.0 | 4.0 | 0.00 | 0.00 | 0.00 | 69 | 1014.5 |
| 20260506201459 | 64 | 51 | 2.0 | 4.0 | 0.00 | 0.00 | 0.00 | 69 | 1014.3 |
| 20260506200516 | 64 | 99 | 4.0 | 6.0 | 0.00 | 0.00 | 0.00 | 68 | 1014.3 |
| 20260506195513 | 64 | 90 | 4.0 | 6.0 | 0.00 | 0.00 | 0.00 | 68 | 1014.2 |
| 20260506194448 | 64 | 90 | 3.0 | 4.0 | 0.00 | 0.00 | 0.00 | 68 | 1014.1 |
| 20260506193446 | 64 | 81 | 4.0 | 6.0 | 0.00 | 0.00 | 0.00 | 68 | 1014.0 |
| 20260506192443 | 64 | 58 | 4.0 | 8.0 | 0.00 | 0.00 | 0.00 | 68 | 1013.9 |
| 20260506191438 | 64 | 68 | 6.0 | 9.0 | 0.00 | 0.00 | 0.00 | 69 | 1013.8 |
| 20260506190435 | 64 | 68 | 6.0 | 9.0 | 0.00 | 0.00 | 0.00 | 68 | 1013.7 |
| 20260506185453 | 64 | 54 | 6.0 | 11.0 | 0.00 | 0.00 | 0.00 | 68 | 1013.7 |
| 20260506184429 | 64 | 68 | 5.0 | 8.0 | 0.00 | 0.00 | 0.00 | 68 | 1013.6 |
| 20260506183426 | 64 | 90 | 6.0 | 9.0 | 0.00 | 0.00 | 0.00 | 67 | 1013.4 |
| 20260506182422 | 65 | 80 | 4.0 | 4.0 | 0.00 | 0.00 | 0.00 | 67 | 1013.5 |
| 20260506181419 | 64 | 54 | 5.0 | 8.0 | 0.00 | 0.00 | 0.00 | 66 | 1013.3 |
| 20260506180416 | 64 | 90 | 6.0 | 9.0 | 0.00 | 0.00 | 0.00 | 67 | 1013.2 |
| 20260506175513 | 65 | 59 | 6.0 | 9.0 | 0.00 | 0.00 | 0.00 | 67 | 1013.1 |
| 20260506174510 | 65 | 127 | 6.0 | 13.0 | 0.00 | 0.00 | 0.00 | 67 | 1013.2 |
| 20260506173506 | 65 | 83 | 9.0 | 11.0 | 0.00 | 0.00 | 0.00 | 67 | 1013.2 |
| 20260506172503 | 65 | 69 | 6.0 | 11.0 | 0.00 | 0.00 | 0.00 | 67 | 1013.3 |
| 20260506171501 | 65 | 68 | 8.0 | 13.0 | 0.00 | 0.00 | 0.00 | 67 | 1013.4 |
| 20260506170538 | 65 | 68 | 7.0 | 11.0 | 0.00 | 0.00 | 0.00 | 67 | 1013.4 |
| 20260506165453 | 65 | 53 | 7.0 | 11.0 | 0.00 | 0.00 | 0.00 | 67 | 1013.5 |
| 20260506164452 | 65 | 56 | 6.0 | 14.0 | 0.00 | 0.00 | 0.00 | 67 | 1013.6 |
| 20260506163507 | 65 | 29 | 8.0 | 13.0 | 0.00 | 0.00 | 0.00 | 68 | 1013.5 |
| 20260506162444 | 65 | 68 | 10.0 | 15.0 | 0.00 | 0.00 | 0.00 | 67 | 1013.5 |
| 20260506161442 | 65 | 51 | 9.0 | 17.0 | 0.00 | 0.00 | 0.00 | 67 | 1013.4 |
| 20260506160439 | 65 | 96 | 9.0 | 15.0 | 0.00 | 0.00 | 0.00 | 67 | 1013.4 |
| 20260506155455 | 64 | 68 | 7.0 | 18.0 | 0.00 | 0.00 | 0.00 | 66 | 1013.6 |
| 20260506154511 | 66 | 68 | 9.0 | 14.0 | 0.00 | 0.00 | 0.00 | 65 | 1013.6 |
| 20260506153449 | 65 | 74 | 10.0 | 15.0 | 0.00 | 0.00 | 0.00 | 66 | 1013.4 |
| 20260506152426 | 64 | 79 | 14.0 | 18.0 | 0.00 | 0.00 | 0.00 | 67 | 1013.4 |
| 20260506151443 | 65 | 55 | 9.0 | 15.0 | 0.00 | 0.00 | 0.00 | 66 | 1013.0 |
| 20260506150418 | 65 | 68 | 9.0 | 14.0 | 0.00 | 0.00 | 0.00 | 67 | 1013.4 |
| 20260506145415 | 65 | 110 | 8.0 | 14.0 | 0.00 | 0.00 | 0.00 | 66 | 1013.8 |
| 20260506144513 | 65 | 99 | 7.0 | 11.0 | 0.00 | 0.00 | 0.00 | 64 | 1013.8 |
| 20260506143508 | 65 | 96 | 8.0 | 14.0 | 0.00 | 0.00 | 0.00 | 65 | 1013.7 |
| 20260506142525 | 65 | 120 | 7.0 | 13.0 | 0.00 | 0.00 | 0.00 | 66 | 1013.8 |
| 20260506141502 | 65 | 62 | 6.0 | 14.0 | 0.00 | 0.00 | 0.00 | 67 | 1013.9 |
| 20260506140500 | 65 | 126 | 8.0 | 13.0 | 0.00 | 0.00 | 0.00 | 66 | 1013.9 |
| 20260506135517 | 66 | 182 | 7.0 | 15.0 | 0.00 | 0.00 | 0.00 | 67 | 1013.8 |
| 20260506134452 | 66 | 74 | 9.0 | 15.0 | 0.00 | 0.00 | 0.00 | 65 | 1013.8 |
| 20260506133450 | 67 | 97 | 11.0 | 18.0 | 0.00 | 0.00 | 0.00 | 60 | 1013.8 |
| 20260506132446 | 67 | 116 | 6.0 | 11.0 | 0.00 | 0.00 | 0.00 | 60 | 1013.9 |
| 20260506131444 | 67 | 113 | 12.0 | 18.0 | 0.00 | 0.00 | 0.00 | 62 | 1013.9 |
| 20260506130441 | 68 | 102 | 9.0 | 20.0 | 0.00 | 0.00 | 0.00 | 58 | 1014.0 |
| 20260506125436 | 67 | 76 | 11.0 | 16.0 | 0.00 | 0.00 | 0.00 | 61 | 1014.0 |
| 20260506124433 | 67 | 113 | 13.0 | 18.0 | 0.00 | 0.00 | 0.00 | 58 | 1014.1 |
| 20260506123430 | 68 | 100 | 9.0 | 17.0 | 0.00 | 0.00 | 0.00 | 57 | 1014.1 |
| 20260506122427 | 67 | 95 | 10.0 | 21.0 | 0.00 | 0.00 | 0.00 | 61 | 1014.2 |
| 20260506121445 | 68 | 97 | 6.0 | 13.0 | 0.00 | 0.00 | 0.00 | 61 | 1014.2 |
| 20260506120420 | 69 | 102 | 4.0 | 13.0 | 0.00 | 0.00 | 0.00 | 60 | 1014.2 |
| 20260506115417 | 67 | 56 | 11.0 | 21.0 | 0.00 | 0.00 | 0.00 | 60 | 1014.3 |
| 20260506114514 | 69 | 119 | 7.0 | 14.0 | 0.00 | 0.00 | 0.00 | 57 | 1014.5 |
| 20260506113531 | 70 | 105 | 4.0 | 8.0 | 0.00 | 0.00 | 0.00 | 56 | 1014.4 |
| 20260506112507 | 68 | 85 | 8.0 | 15.0 | 0.00 | 0.00 | 0.00 | 57 | 1014.4 |
| 20260506111524 | 69 | 127 | 4.0 | 8.0 | 0.00 | 0.00 | 0.00 | 53 | 1014.4 |
| 20260506110502 | 67 | 90 | 8.0 | 13.0 | 0.00 | 0.00 | 0.00 | 57 | 1014.4 |
| 20260506105519 | 67 | 90 | 10.0 | 14.0 | 0.00 | 0.00 | 0.00 | 54 | 1014.5 |
| 20260506104455 | 69 | 102 | 6.0 | 11.0 | 0.00 | 0.00 | 0.00 | 53 | 1014.6 |
| 20260506103512 | 67 | 68 | 11.0 | 13.0 | 0.00 | 0.00 | 0.00 | 53 | 1014.5 |
| 20260506102448 | 68 | 99 | 7.0 | 11.0 | 0.00 | 0.00 | 0.00 | 55 | 1014.6 |
| 20260506101505 | 68 | 82 | 10.0 | 13.0 | 0.00 | 0.00 | 0.00 | 53 | 1014.6 |
| 20260506100442 | 69 | 90 | 5.0 | 13.0 | 0.00 | 0.00 | 0.00 | 55 | 1014.6 |
| 20260506095438 | 68 | 90 | 8.0 | 13.0 | 0.00 | 0.00 | 0.00 | 56 | 1014.6 |
| 20260506094435 | 68 | 180 | 3.0 | 6.0 | 0.00 | 0.00 | 0.00 | 55 | 1014.6 |
| 20260506093452 | 68 | 84 | 2.0 | 4.0 | 0.00 | 0.00 | 0.00 | 55 | 1014.6 |
| 20260506092429 | 70 | 82 | 1.0 | 2.0 | 0.00 | 0.00 | 0.00 | 52 | 1014.5 |
| 20260506091426 | 70 | 166 | 2.0 | 11.0 | 0.00 | 0.00 | 0.00 | 52 | 1014.5 |
| 20260506090422 | 68 | 177 | 2.0 | 4.0 | 0.00 | 0.00 | 0.00 | 56 | 1014.6 |
| 20260506085419 | 69 | 158 | 2.0 | 2.0 | 0.00 | 0.00 | 0.00 | 56 | 1014.5 |
| 20260506084436 | 69 | 180 | 0.0 | 2.0 | 0.00 | 0.00 | 0.00 | 56 | 1014.6 |
| 20260506083513 | 67 | 0.0 | 2.0 | 0.00 | 0.00 | 0.00 | 61 | 1014.7 | |
| 20260506082510 | 65 | 177 | 2.0 | 4.0 | 0.00 | 0.00 | 0.00 | 62 | 1014.7 |
| 20260506081506 | 64 | 261 | 3.0 | 4.0 | 0.00 | 0.00 | 0.00 | 63 | 1014.6 |
| 20260506080503 | 64 | 270 | 3.0 | 4.0 | 0.00 | 0.00 | 0.00 | 64 | 1014.6 |
| 20260506073455 | 62 | 276 | 2.0 | 4.0 | 0.00 | 0.00 | 0.00 | 68 | 1014.6 |
| 20260506072450 | 62 | 285 | 1.0 | 2.0 | 0.00 | 0.00 | 0.00 | 69 | 1014.5 |
| 20260506071448 | 61 | 244 | 2.0 | 4.0 | 0.00 | 0.00 | 0.00 | 70 | 1014.5 |
| 20260506070445 | 60 | 277 | 2.0 | 4.0 | 0.00 | 0.00 | 0.00 | 72 | 1014.4 |